(284400) = 2006 UC17

Discovered at Catalina on 2006-10-19 by CSS.

Orbit

Orbit type: Main Belt

Note: WebGL enabled browser required.

epoch2024-03-31.0
epoch JD2460400.5
perihelion date2023-05-24.21812
perihelion JD2460088.71812
argument of perihelion (°)146.78466
ascending node (°)291.60688
inclination (°)30.14642
eccentricity0.3375004
perihelion distance (AU)2.0778472
Tisserand w.r.t. Jupiter2.9
ΔV w.r.t. Earth (km/sec)12.8
semimajor axis (AU)3.1363753
mean anomaly (°)55.32389
mean daily motion (°/day)0.17744420
aphelion distance (AU)4.195
period (years)5.55
P-vector [x]0.13233771
P-vector [y]0.76425327
P-vector [z]0.63119226
Q-vector [x]-0.87433991
Q-vector [y]0.38997786
Q-vector [z]-0.28887192
absolute magnitude14.88
phase slope0.15
uncertainty0
referenceMPEC 2024-F50
observations used676
oppositions12
arc length (days)9051
first opposition used1999
last opposition used2024
residual rms (arc-secs)0.62
perturbers coarse indicatorM-v
perturbers precise indicator003Ek
first observation date used1999-06-08.0
last observation date used2024-03-19.0
computer nameMPCLINUX
JD of orbit computation2456376.457423
perihelion JD uncertainty (days)8.3023E-05
argument of perihelion uncertainty (°)2.5141E-05
ascending node uncertainty (°)9.6732E-06
inclination uncertainty (°)8.7201E-06
eccentricity uncertainty 8.0148E-08
perihelion distance uncertainty (AU)2.6915E-07
Minimum Orbit Intersection Distances (in AU)
for orbit epoch: 2460400.5, reference: E2024-G77
Mercury1.77611
Venus1.38463
Earth1.13585
Mars0.5303
Jupiter1.22424
Saturn6.06039
Uranus15.3076
Neptune26.3547

Observations

685 total observations over interval: 1999 06 08.40258 – 2024 03 19.330956
These data are available for download (format description).

Date (UT) J2000 RA J2000 Dec Magn Location Ref
1999 06 08.40258 20 13 33.26 -20 47 23.0 20.4 V 691 – Steward Observatory, Kitt Peak-Spacewatch MPS 192346
1999 06 08.42466 20 13 32.46 -20 47 26.8 18.9 V 691 – Steward Observatory, Kitt Peak-Spacewatch MPS 192346
1999 06 08.44320 20 13 32.03 -20 47 17.5 20.7 V 691 – Steward Observatory, Kitt Peak-Spacewatch MPS 192346
2000 12 01.07979 22 46 04.93 +35 22 13.7 19.7   704 – Lincoln Laboratory ETS, New Mexico MPS 213819
2000 12 01.09421 22 46 05.84 +35 22 06.3 20.0   704 – Lincoln Laboratory ETS, New Mexico MPS 213819
2000 12 01.10862 22 46 06.76 +35 22 00.0 19.5   704 – Lincoln Laboratory ETS, New Mexico MPS 213819
2000 12 01.12436 22 46 07.75 +35 21 52.3 19.7   704 – Lincoln Laboratory ETS, New Mexico MPS 213819
2005 06 30.44258 21 28 13.42 +00 39 16.8 19.8   644 – Palomar Mountain/NEAT MPS 192346
2005 06 30.45359 21 28 13.08 +00 39 21.5 19.7   644 – Palomar Mountain/NEAT MPS 192346
2005 06 30.46512 21 28 12.74 +00 39 26.0 19.6   644 – Palomar Mountain/NEAT MPS 192346
2006 10 19.38679 07 42 32.72 +42 40 59.4 18.7 V 703 – Catalina Sky Survey MPS 183209
2006 10 19.39599 07 42 33.58 +42 40 56.3 18.6 V 703 – Catalina Sky Survey MPS 183209
2006 10 19.40526 07 42 34.20 +42 40 53.0 18.2 V 703 – Catalina Sky Survey MPS 183209
2006 10 19.41454 07 42 34.99 +42 40 48.4 18.6 V 703 – Catalina Sky Survey MPS 183209
2006 10 19.52379 07 42 43.77 +42 40 03.1 18.2 V 703 – Catalina Sky Survey MPS 183209
2006 10 19.52468 07 42 43.84 +42 40 04.1 18.8 V 703 – Catalina Sky Survey MPS 183209
2006 10 19.52557 07 42 44.02 +42 40 02.9 17.8 V 703 – Catalina Sky Survey MPS 183209
2006 10 19.52647 07 42 44.02 +42 40 02.1 17.7 V 703 – Catalina Sky Survey MPS 183209
2006 10 20.39549 07 43 55.29 +42 33 59.1 19.3 R 734 – Farpoint Observatory, Eskridge MPS 183209
2006 10 20.39845 07 43 55.54 +42 33 57.4 19.2 R 734 – Farpoint Observatory, Eskridge MPS 183209
2006 10 20.40139 07 43 55.75 +42 33 56.1 18.9 R 734 – Farpoint Observatory, Eskridge MPS 183209
2006 10 20.444560 07 43 59.277 +42 33 38.91 18.6 R 673 – Table Mountain Observatory, Wrightwood MPS 183209
2006 10 20.447801 07 43 59.539 +42 33 37.61   673 – Table Mountain Observatory, Wrightwood MPS 183209
2006 10 20.454051 07 44 00.047 +42 33 34.91   673 – Table Mountain Observatory, Wrightwood MPS 183209
2006 10 20.460532 07 44 00.537 +42 33 32.43   673 – Table Mountain Observatory, Wrightwood MPS 183209
2006 10 20.46496 07 44 00.85 +42 33 29.9 18.6 V G96 – Mt. Lemmon Survey MPS 183209
2006 10 20.46704 07 44 00.96 +42 33 29.1 18.7 V G96 – Mt. Lemmon Survey MPS 183209
2006 10 20.46909 07 44 01.17 +42 33 28.8 19.0 V G96 – Mt. Lemmon Survey MPS 183209
2006 10 20.46974 07 44 01.18 +42 33 29.2   711 – McDonald Observatory, Fort Davis MPS 183209
2006 10 20.47111 07 44 01.32 +42 33 28.1 19.0 V G96 – Mt. Lemmon Survey MPS 183209
2006 10 20.47902 07 44 01.94 +42 33 25.7 18.9 R 711 – McDonald Observatory, Fort Davis MPS 183209
2006 10 20.48829 07 44 02.71 +42 33 21.9 18.9 R 711 – McDonald Observatory, Fort Davis MPS 183209
2006 10 29.45215 07 54 35.85 +41 27 59.5 19.0 V 703 – Catalina Sky Survey MPS 192346
2006 10 29.45706 07 54 36.10 +41 27 56.4 18.8 V 703 – Catalina Sky Survey MPS 192346
2006 10 29.46200 07 54 36.36 +41 27 54.8 19.0 V 703 – Catalina Sky Survey MPS 192346
2006 10 29.46687 07 54 36.68 +41 27 52.5 19.0 V 703 – Catalina Sky Survey MPS 192346
2006 11 13.39053 08 04 53.59 +39 26 47.7 18.5   704 – Lincoln Laboratory ETS, New Mexico MPS 192346
2006 11 13.40274 08 04 53.76 +39 26 40.9 18.4   704 – Lincoln Laboratory ETS, New Mexico MPS 192346
2006 11 13.41494 08 04 53.93 +39 26 35.0 18.5   704 – Lincoln Laboratory ETS, New Mexico MPS 192346
2006 11 13.42715 08 04 54.19 +39 26 28.8 18.9   704 – Lincoln Laboratory ETS, New Mexico MPS 192346
2006 11 20.34518 08 06 12.27 +38 24 12.8 18.2 V 703 – Catalina Sky Survey MPS 192346
2006 11 20.35737 08 06 12.27 +38 24 05.9 18.4 V 703 – Catalina Sky Survey MPS 192346
2006 11 20.36346 08 06 12.24 +38 24 02.4 18.3 V 703 – Catalina Sky Survey MPS 192346
2006 12 01.33314 08 03 23.25 +36 33 47.3 17.8   704 – Lincoln Laboratory ETS, New Mexico MPS 192346
2006 12 01.34600 08 03 22.71 +36 33 39.3 18.0   704 – Lincoln Laboratory ETS, New Mexico MPS 192346
2006 12 01.37196 08 03 21.65 +36 33 21.3 18.1   704 – Lincoln Laboratory ETS, New Mexico MPS 192346
2006 12 01.38526 08 03 21.37 +36 33 14.6 17.8   704 – Lincoln Laboratory ETS, New Mexico MPS 192347
2006 12 06.44683 08 00 01.88 +35 35 58.1 17.7 R 644 – Palomar Mountain/NEAT MPS 192347
2006 12 06.46755 08 00 00.85 +35 35 43.6 17.9 R 644 – Palomar Mountain/NEAT MPS 192347
2006 12 06.48951 07 59 59.74 +35 35 29.8 17.2 R 644 – Palomar Mountain/NEAT MPS 192347
2006 12 12.32679 07 54 40.31 +34 23 07.4 17.9   704 – Lincoln Laboratory ETS, New Mexico MPS 192347
2006 12 12.33966 07 54 39.51 +34 22 57.0 18.1   704 – Lincoln Laboratory ETS, New Mexico MPS 192347
2006 12 12.35245 07 54 38.64 +34 22 47.3 18.4   704 – Lincoln Laboratory ETS, New Mexico MPS 192347
2006 12 12.36554 07 54 37.79 +34 22 37.0 18.1   704 – Lincoln Laboratory ETS, New Mexico MPS 192347
2006 12 12.37833 07 54 36.95 +34 22 27.0 18.1   704 – Lincoln Laboratory ETS, New Mexico MPS 192347
2006 12 25.28871 07 38 08.11 +31 14 49.9 17.4 R 699 – Lowell Observatory-LONEOS MPS 192347
2006 12 25.31547 07 38 05.69 +31 14 24.7   699 – Lowell Observatory-LONEOS MPS 192347
2006 12 25.34212 07 38 03.30 +31 13 58.9   699 – Lowell Observatory-LONEOS MPS 192347
2006 12 25.36886 07 38 00.89 +31 13 34.2   699 – Lowell Observatory-LONEOS MPS 192347
2006 12 26.24789 07 36 43.66 +30 59 20.0 17.1 V 703 – Catalina Sky Survey MPS 192347
2006 12 26.25825 07 36 42.69 +30 59 09.8 17.1 V 703 – Catalina Sky Survey MPS 192347
2006 12 26.26857 07 36 41.76 +30 59 00.3 17.1 V 703 – Catalina Sky Survey MPS 192347
2006 12 26.27892 07 36 40.82 +30 58 50.1 17.2 V 703 – Catalina Sky Survey MPS 192347
2006 12 27.15515 07 35 22.91 +30 44 27.2 16.9 V 703 – Catalina Sky Survey MPS 192347
2006 12 27.15663 07 35 22.76 +30 44 26.1 16.9 V 703 – Catalina Sky Survey MPS 192347
2006 12 27.15810 07 35 22.64 +30 44 24.5 16.8 V 703 – Catalina Sky Survey MPS 192347
2006 12 27.15960 07 35 22.50 +30 44 23.3 16.8 V 703 – Catalina Sky Survey MPS 192347
2006 12 30.06195 07 30 58.59 +29 55 44.5 17.3 R 232 – Masquefa Observatory MPS 192347
2006 12 30.06616 07 30 58.17 +29 55 40.2 17.4 R 232 – Masquefa Observatory MPS 192347
2006 12 30.06953 07 30 57.82 +29 55 36.7 17.3 R 232 – Masquefa Observatory MPS 192347
2007 01 07.33450 07 18 14.83 +27 28 57.0 16.3 R 644 – Palomar Mountain/NEAT MPS 195565
2007 01 07.35544 07 18 12.85 +27 28 34.0 16.3 R 644 – Palomar Mountain/NEAT MPS 195565
2007 01 07.37597 07 18 10.91 +27 28 11.2 16.2 R 644 – Palomar Mountain/NEAT MPS 195565
2007 01 08.14912 07 17 00.96 +27 13 59.2 17.5 V 691 – Steward Observatory, Kitt Peak-Spacewatch MPS 195565
2007 01 08.16649 07 16 59.35 +27 13 40.4 17.5 V 691 – Steward Observatory, Kitt Peak-Spacewatch MPS 195565
2007 01 08.18387 07 16 57.74 +27 13 21.4 18.7 V 691 – Steward Observatory, Kitt Peak-Spacewatch MPS 195565
2007 01 08.45714 07 16 32.23 +27 08 19.6 16.7 R 644 – Palomar Mountain/NEAT MPS 195565
2007 01 08.47755 07 16 30.35 +27 07 57.0 16.9 R 644 – Palomar Mountain/NEAT MPS 195565
2007 01 08.49781 07 16 28.50 +27 07 34.4 17.0 R 644 – Palomar Mountain/NEAT MPS 195565
2007 01 09.22552 07 15 23.37 +26 54 10.7 16.9 R 644 – Palomar Mountain/NEAT MPS 195565
2007 01 09.24588 07 15 21.49 +26 53 48.0 17.1 R 644 – Palomar Mountain/NEAT MPS 195565
2007 01 09.26625 07 15 19.59 +26 53 25.5 17.0 R 644 – Palomar Mountain/NEAT MPS 195565
2007 01 10.26634 07 13 49.87 +26 34 56.2 17.2   704 – Lincoln Laboratory ETS, New Mexico MPS 195565
2007 01 10.28182 07 13 48.47 +26 34 38.5 17.7   704 – Lincoln Laboratory ETS, New Mexico MPS 195565
2007 01 10.29612 07 13 47.14 +26 34 23.0 17.4   704 – Lincoln Laboratory ETS, New Mexico MPS 195565
2007 01 10.31162 07 13 45.72 +26 34 06.0 17.5   704 – Lincoln Laboratory ETS, New Mexico MPS 195565
2007 01 10.32592 07 13 44.33 +26 33 50.8 19.2   704 – Lincoln Laboratory ETS, New Mexico MPS 195565
2007 01 11.37950 07 12 10.92 +26 14 16.5 16.6 R 644 – Palomar Mountain/NEAT MPS 195565
2007 01 11.40007 07 12 09.04 +26 13 53.3 16.5 R 644 – Palomar Mountain/NEAT MPS 195565
